| time (UTC) | temp F | wind direction | speed MPH | gust MPH | rain 1hr in | rain 24hr in | rain mn in | humidity % | barometer mb |
| 20260505003832 | 76 | 39 | 4.0 | 8.0 | 0.00 | 0.70 | 0.70 | 80 | 1015.1 |
| 20260505003325 | 76 | 55 | 4.0 | 9.0 | 0.00 | 0.70 | 0.70 | 80 | 1015.1 |
| 20260505002848 | 76 | 64 | 4.0 | 9.0 | 0.00 | 0.70 | 0.70 | 80 | 1015.1 |
| 20260505002342 | 76 | 107 | 3.0 | 10.0 | 0.00 | 0.70 | 0.70 | 80 | 1015.0 |
| 20260505001838 | 76 | 141 | 6.0 | 10.0 | 0.00 | 0.70 | 0.70 | 80 | 1015.2 |
| 20260505001329 | 76 | 72 | 5.0 | 12.0 | 0.00 | 0.70 | 0.70 | 79 | 1015.1 |
| 20260505000823 | 76 | 72 | 6.0 | 12.0 | 0.00 | 0.70 | 0.70 | 79 | 1015.1 |
| 20260505000345 | 76 | 53 | 5.0 | 11.0 | 0.00 | 0.70 | 0.70 | 79 | 1015.0 |
| 20260504235829 | 76 | 50 | 6.0 | 10.0 | 0.00 | 0.70 | 0.70 | 79 | 1015.1 |
| 20260504235345 | 76 | 35 | 5.0 | 10.0 | 0.00 | 0.70 | 0.70 | 79 | 1015.1 |
| 20260504234854 | 76 | 64 | 3.0 | 10.0 | 0.00 | 0.70 | 0.70 | 79 | 1015.0 |
| 20260504234327 | 77 | 22 | 5.0 | 14.0 | 0.00 | 0.70 | 0.70 | 79 | 1015.0 |
| 20260504233820 | 77 | 66 | 6.0 | 14.0 | 0.00 | 0.70 | 0.70 | 79 | 1015.1 |
| 20260504233342 | 77 | 68 | 6.0 | 14.0 | 0.00 | 0.70 | 0.70 | 79 | 1015.0 |
| 20260504232836 | 77 | 59 | 6.0 | 14.0 | 0.00 | 0.70 | 0.70 | 79 | 1015.1 |
| 20260504232330 | 77 | 322 | 4.0 | 9.0 | 0.00 | 0.70 | 0.70 | 79 | 1015.1 |
| 20260504231832 | 77 | 23 | 4.0 | 9.0 | 0.00 | 0.70 | 0.70 | 79 | 1015.0 |
| 20260504231346 | 77 | 32 | 5.0 | 11.0 | 0.00 | 0.70 | 0.70 | 79 | 1014.9 |
| 20260504230847 | 77 | 144 | 4.0 | 11.0 | 0.00 | 0.70 | 0.70 | 79 | 1014.8 |
| 20260504230341 | 77 | 53 | 6.0 | 13.0 | 0.00 | 0.70 | 0.70 | 79 | 1014.8 |
| 20260504225832 | 77 | 80 | 7.0 | 13.0 | 0.00 | 0.70 | 0.70 | 78 | 1014.6 |
| 20260504225324 | 77 | 41 | 6.0 | 13.0 | 0.00 | 0.70 | 0.70 | 78 | 1014.7 |
| 20260504224846 | 77 | 56 | 6.0 | 13.0 | 0.00 | 0.70 | 0.70 | 78 | 1014.6 |
| 20260504224342 | 77 | 82 | 7.0 | 13.0 | 0.00 | 0.70 | 0.70 | 78 | 1014.7 |
| 20260504223827 | 77 | 32 | 6.0 | 15.0 | 0.00 | 0.70 | 0.70 | 78 | 1014.7 |
| 20260504223342 | 77 | 70 | 6.0 | 15.0 | 0.00 | 0.70 | 0.70 | 78 | 1014.6 |
| 20260504222851 | 78 | 110 | 6.0 | 17.0 | 0.00 | 0.70 | 0.70 | 78 | 1014.6 |
| 20260504222352 | 78 | 148 | 6.0 | 17.0 | 0.00 | 0.70 | 0.70 | 78 | 1014.6 |
| 20260504221847 | 78 | 113 | 6.0 | 14.0 | 0.00 | 0.70 | 0.70 | 77 | 1014.7 |
| 20260504221321 | 78 | 120 | 8.0 | 16.0 | 0.00 | 0.70 | 0.70 | 77 | 1014.8 |
| 20260504220831 | 78 | 101 | 7.0 | 16.0 | 0.00 | 0.70 | 0.70 | 78 | 1014.9 |
| 20260504220346 | 78 | 63 | 7.0 | 13.0 | 0.00 | 0.70 | 0.70 | 78 | 1014.7 |
| 20260504215819 | 78 | 4 | 6.0 | 13.0 | 0.00 | 0.70 | 0.70 | 78 | 1014.8 |
| 20260504215330 | 78 | 46 | 7.0 | 12.0 | 0.00 | 0.70 | 0.70 | 78 | 1014.7 |
| 20260504214820 | 77 | 53 | 7.0 | 12.0 | 0.00 | 0.70 | 0.70 | 78 | 1014.6 |
| 20260504214329 | 78 | 60 | 6.0 | 12.0 | 0.00 | 0.70 | 0.70 | 78 | 1014.6 |
| 20260504213823 | 78 | 54 | 6.0 | 16.0 | 0.00 | 0.70 | 0.70 | 78 | 1014.6 |
| 20260504213345 | 78 | 143 | 7.0 | 16.0 | 0.00 | 0.70 | 0.70 | 78 | 1014.4 |
| 20260504212837 | 78 | 134 | 7.0 | 14.0 | 0.00 | 0.70 | 0.70 | 78 | 1014.5 |
| 20260504212331 | 78 | 75 | 8.0 | 13.0 | 0.00 | 0.70 | 0.70 | 78 | 1014.5 |
| 20260504211836 | 78 | 110 | 5.0 | 13.0 | 0.00 | 0.70 | 0.70 | 78 | 1014.7 |
| 20260504211347 | 78 | 71 | 5.0 | 14.0 | 0.00 | 0.70 | 0.70 | 78 | 1014.7 |
| 20260504210819 | 78 | 26 | 7.0 | 14.0 | 0.00 | 0.70 | 0.70 | 78 | 1014.7 |
| 20260504210342 | 78 | 30 | 7.0 | 14.0 | 0.00 | 0.70 | 0.70 | 77 | 1014.6 |
| 20260504205827 | 78 | 41 | 7.0 | 12.0 | 0.00 | 0.70 | 0.70 | 77 | 1014.9 |
| 20260504205321 | 79 | 62 | 6.0 | 14.0 | 0.00 | 0.76 | 0.70 | 77 | 1014.8 |
| 20260504204832 | 78 | 15 | 6.0 | 20.0 | 0.00 | 0.76 | 0.70 | 78 | 1014.9 |
| 20260504204325 | 78 | 74 | 10.0 | 20.0 | 0.00 | 0.76 | 0.70 | 78 | 1014.9 |
| 20260504203848 | 78 | 49 | 7.0 | 14.0 | 0.00 | 0.76 | 0.70 | 78 | 1014.8 |
| 20260504203331 | 78 | 91 | 7.0 | 14.0 | 0.00 | 0.76 | 0.70 | 78 | 1014.9 |
| 20260504202841 | 78 | 117 | 7.0 | 15.0 | 0.00 | 0.76 | 0.70 | 78 | 1014.8 |
| 20260504202349 | 78 | 64 | 6.0 | 13.0 | 0.00 | 0.76 | 0.70 | 78 | 1014.9 |
| 20260504201820 | 78 | 78 | 7.0 | 13.0 | 0.00 | 0.76 | 0.70 | 78 | 1015.0 |
| 20260504201321 | 78 | 21 | 6.0 | 14.0 | 0.00 | 0.76 | 0.70 | 78 | 1015.0 |
| 20260504200831 | 78 | 51 | 8.0 | 18.0 | 0.00 | 0.76 | 0.70 | 78 | 1015.0 |
| 20260504200322 | 78 | 131 | 8.0 | 18.0 | 0.00 | 0.76 | 0.70 | 78 | 1015.2 |
| 20260504195831 | 78 | 131 | 5.0 | 14.0 | 0.00 | 0.76 | 0.70 | 78 | 1015.1 |
| 20260504195322 | 78 | 58 | 8.0 | 14.0 | 0.00 | 0.77 | 0.70 | 78 | 1015.2 |
| 20260504194845 | 78 | 122 | 6.0 | 12.0 | 0.00 | 0.77 | 0.70 | 79 | 1015.3 |
| 20260504194332 | 78 | 108 | 6.0 | 16.0 | 0.00 | 0.77 | 0.70 | 78 | 1015.4 |
| 20260504193825 | 78 | 27 | 8.0 | 16.0 | 0.00 | 0.77 | 0.70 | 78 | 1015.3 |
| 20260504193334 | 78 | 51 | 5.0 | 16.0 | 0.00 | 0.77 | 0.70 | 78 | 1015.4 |
| 20260504192826 | 78 | 98 | 8.0 | 16.0 | 0.00 | 0.77 | 0.70 | 78 | 1015.5 |
| 20260504192328 | 78 | 71 | 6.0 | 14.0 | 0.00 | 0.77 | 0.70 | 79 | 1015.5 |
| 20260504191820 | 78 | 84 | 6.0 | 14.0 | 0.00 | 0.77 | 0.70 | 78 | 1015.7 |
| 20260504191342 | 78 | 67 | 6.0 | 12.0 | 0.00 | 0.77 | 0.70 | 78 | 1015.7 |
| 20260504190837 | 78 | 22 | 6.0 | 14.0 | 0.00 | 0.77 | 0.70 | 78 | 1015.6 |
| 20260504190327 | 78 | 68 | 7.0 | 14.0 | 0.00 | 0.77 | 0.70 | 78 | 1015.7 |
| 20260504185820 | 78 | 174 | 7.0 | 16.0 | 0.00 | 0.77 | 0.70 | 78 | 1015.6 |
| 20260504185334 | 78 | 117 | 7.0 | 16.0 | 0.00 | 0.78 | 0.70 | 78 | 1015.8 |
| 20260504184848 | 79 | 124 | 7.0 | 13.0 | 0.00 | 0.78 | 0.70 | 77 | 1015.8 |
| 20260504184338 | 79 | 124 | 7.0 | 17.0 | 0.00 | 0.78 | 0.70 | 77 | 1015.9 |
| 20260504183829 | 79 | 227 | 10.0 | 17.0 | 0.00 | 0.78 | 0.70 | 77 | 1015.8 |
| 20260504183339 | 79 | 53 | 8.0 | 15.0 | 0.00 | 0.78 | 0.70 | 77 | 1015.9 |
| 20260504182857 | 79 | 46 | 8.0 | 16.0 | 0.00 | 0.78 | 0.70 | 78 | 1015.9 |
| 20260504182403 | 79 | 53 | 9.0 | 16.0 | 0.00 | 0.78 | 0.70 | 78 | 1016.0 |
| 20260504181835 | 79 | 67 | 9.0 | 16.0 | 0.00 | 0.78 | 0.70 | 78 | 1016.1 |
| 20260504181334 | 79 | 193 | 9.0 | 21.0 | 0.00 | 0.78 | 0.70 | 78 | 1016.1 |
| 20260504180908 | 79 | 27 | 8.0 | 21.0 | 0.00 | 0.78 | 0.70 | 78 | 1016.1 |
| 20260504180338 | 79 | 68 | 9.0 | 15.0 | 0.00 | 0.78 | 0.70 | 78 | 1016.3 |
| 20260504175828 | 78 | 58 | 6.0 | 16.0 | 0.00 | 0.78 | 0.70 | 79 | 1016.2 |
| 20260504175321 | 78 | 68 | 9.0 | 16.0 | 0.00 | 0.81 | 0.70 | 79 | 1016.3 |
| 20260504174829 | 78 | 42 | 7.0 | 15.0 | 0.00 | 0.81 | 0.70 | 79 | 1016.4 |
| 20260504174341 | 78 | 46 | 6.0 | 13.0 | 0.00 | 0.81 | 0.70 | 80 | 1016.5 |
| 20260504173821 | 77 | 56 | 6.0 | 13.0 | 0.00 | 0.81 | 0.70 | 80 | 1016.5 |
| 20260504173345 | 77 | 103 | 7.0 | 16.0 | 0.00 | 0.81 | 0.70 | 80 | 1016.5 |
| 20260504172836 | 77 | 164 | 7.0 | 16.0 | 0.00 | 0.81 | 0.70 | 80 | 1016.6 |
| 20260504172335 | 77 | 125 | 9.0 | 15.0 | 0.00 | 0.81 | 0.70 | 80 | 1016.6 |
| 20260504171836 | 77 | 97 | 9.0 | 15.0 | 0.00 | 0.81 | 0.70 | 80 | 1016.5 |
| 20260504171346 | 78 | 25 | 8.0 | 15.0 | 0.00 | 0.81 | 0.70 | 79 | 1016.6 |
| 20260504170837 | 78 | 65 | 8.0 | 15.0 | 0.00 | 0.81 | 0.70 | 80 | 1016.5 |
| 20260504170318 | 78 | 73 | 7.0 | 15.0 | 0.00 | 0.81 | 0.70 | 80 | 1016.5 |
| 20260504160327 | 76 | 45 | 8.0 | 14.0 | 0.01 | 0.81 | 0.70 | 83 | 1017.0 |
| 20260504150840 | 73 | 39 | 5.0 | 12.0 | 0.01 | 0.80 | 0.69 | 90 | 1017.0 |
| 20260504150407 | 73 | 77 | 6.0 | 10.0 | 0.02 | 0.80 | 0.69 | 90 | 1017.0 |
| 20260504140822 | 72 | 25 | 6.0 | 18.0 | 0.03 | 0.79 | 0.68 | 90 | 1016.7 |
| 20260504140331 | 72 | 46 | 12.0 | 18.0 | 0.02 | 0.78 | 0.67 | 89 | 1016.6 |
| 20260504130348 | 74 | 337 | 3.0 | 8.0 | 0.00 | 0.80 | 0.65 | 90 | 1015.9 |
| 20260504110326 | 71 | 347 | 1.0 | 3.0 | 0.00 | 0.84 | 0.65 | 93 | 1014.5 |
| 20260504100320 | 72 | 20 | 1.0 | 4.0 | 0.00 | 0.84 | 0.65 | 93 | 1014.5 |
| 20260504081821 | 72 | 335 | 2.0 | 4.0 | 0.64 | 0.84 | 0.65 | 92 | 1013.5 |
| 20260504081405 | 72 | 339 | 3.0 | 4.0 | 0.64 | 0.84 | 0.65 | 92 | 1013.7 |
| 20260504080853 | 72 | 349 | 2.0 | 3.0 | 0.65 | 0.84 | 0.65 | 92 | 1013.9 |
| 20260504080323 | 72 | 359 | 1.0 | 2.0 | 0.65 | 0.84 | 0.65 | 92 | 1013.9 |
| 20260504070330 | 73 | 352 | 0.0 | 1.0 | 0.00 | 0.19 | 0.00 | 92 | 1014.3 |
| 20260504050331 | 73 | 340 | 1.0 | 3.0 | 0.00 | 0.19 | 0.00 | 90 | 1015.6 |
| 20260504045846 | 73 | 348 | 0.0 | 2.0 | 0.00 | 0.19 | 0.00 | 91 | 1015.7 |
| 20260504045340 | 73 | 348 | 1.0 | 2.0 | 0.00 | 0.19 | 0.00 | 91 | 1015.7 |
| 20260504044829 | 73 | 345 | 0.0 | 2.0 | 0.00 | 0.19 | 0.00 | 91 | 1015.7 |
| 20260504044323 | 73 | 345 | 1.0 | 2.0 | 0.00 | 0.19 | 0.00 | 91 | 1015.6 |
| 20260504043847 | 73 | 348 | 1.0 | 1.0 | 0.00 | 0.19 | 0.00 | 91 | 1015.6 |
| 20260504043320 | 73 | 338 | 1.0 | 2.0 | 0.00 | 0.19 | 0.00 | 90 | 1015.5 |
| 20260504042821 | 73 | 334 | 0.0 | 3.0 | 0.00 | 0.19 | 0.00 | 91 | 1015.5 |
| 20260504042342 | 73 | 43 | 2.0 | 3.0 | 0.00 | 0.19 | 0.00 | 90 | 1015.4 |
| 20260504041822 | 73 | 28 | 2.0 | 3.0 | 0.00 | 0.19 | 0.00 | 91 | 1015.6 |
| 20260504041337 | 73 | 53 | 2.0 | 4.0 | 0.00 | 0.19 | 0.00 | 90 | 1015.7 |
| 20260504040850 | 73 | 323 | 2.0 | 5.0 | 0.00 | 0.19 | 0.00 | 91 | 1015.8 |
| 20260504040322 | 73 | 51 | 2.0 | 3.0 | 0.00 | 0.19 | 0.00 | 91 | 1015.6 |
| 20260504035902 | 73 | 91 | 1.0 | 4.0 | 0.00 | 0.19 | 0.00 | 91 | 1015.8 |
| 20260504035322 | 73 | 7 | 1.0 | 5.0 | 0.00 | 0.19 | 0.19 | 90 | 1016.0 |
| 20260504034825 | 73 | 337 | 2.0 | 5.0 | 0.00 | 0.19 | 0.19 | 90 | 1016.1 |
| 20260504034346 | 73 | 340 | 2.0 | 4.0 | 0.00 | 0.19 | 0.19 | 90 | 1016.2 |
| 20260504033836 | 73 | 330 | 2.0 | 5.0 | 0.00 | 0.19 | 0.19 | 90 | 1016.1 |
| 20260504033350 | 73 | 335 | 2.0 | 5.0 | 0.00 | 0.19 | 0.19 | 90 | 1016.0 |
| 20260504032837 | 73 | 345 | 1.0 | 2.0 | 0.00 | 0.19 | 0.19 | 90 | 1016.0 |
| 20260504032330 | 73 | 344 | 1.0 | 3.0 | 0.00 | 0.19 | 0.19 | 90 | 1016.1 |
| 20260504031843 | 73 | 356 | 1.0 | 3.0 | 0.00 | 0.19 | 0.19 | 90 | 1016.0 |
| 20260504031336 | 73 | 327 | 0.0 | 2.0 | 0.00 | 0.19 | 0.19 | 90 | 1016.1 |
| 20260504030821 | 73 | 326 | 0.0 | 3.0 | 0.00 | 0.19 | 0.19 | 90 | 1016.2 |
| 20260504030330 | 73 | 22 | 0.0 | 4.0 | 0.00 | 0.19 | 0.19 | 90 | 1016.2 |
| 20260504025842 | 73 | 5 | 2.0 | 4.0 | 0.00 | 0.19 | 0.19 | 90 | 1016.1 |
| 20260504025343 | 73 | 18 | 1.0 | 4.0 | 0.00 | 0.19 | 0.19 | 90 | 1016.3 |
| 20260504024829 | 73 | 21 | 2.0 | 4.0 | 0.00 | 0.19 | 0.19 | 90 | 1016.1 |
| 20260504024323 | 73 | 37 | 1.0 | 5.0 | 0.00 | 0.19 | 0.19 | 90 | 1016.1 |
| 20260504023835 | 73 | 39 | 2.0 | 5.0 | 0.00 | 0.19 | 0.19 | 89 | 1016.2 |
| 20260504023327 | 73 | 23 | 1.0 | 3.0 | 0.00 | 0.19 | 0.19 | 89 | 1016.2 |
| 20260504022848 | 73 | 338 | 2.0 | 3.0 | 0.00 | 0.19 | 0.19 | 89 | 1016.3 |
| 20260504022329 | 73 | 7 | 1.0 | 3.0 | 0.00 | 0.19 | 0.19 | 89 | 1016.2 |
| 20260504021832 | 73 | 36 | 2.0 | 4.0 | 0.00 | 0.19 | 0.19 | 89 | 1016.3 |
| 20260504021338 | 73 | 25 | 2.0 | 5.0 | 0.00 | 0.19 | 0.19 | 89 | 1016.3 |
| 20260504020832 | 73 | 33 | 3.0 | 5.0 | 0.00 | 0.19 | 0.19 | 89 | 1016.3 |
| 20260504020407 | 73 | 35 | 2.0 | 4.0 | 0.00 | 0.19 | 0.19 | 89 | 1016.2 |
| 20260504015838 | 73 | 47 | 2.0 | 5.0 | 0.00 | 0.19 | 0.19 | 89 | 1016.4 |
| 20260504014826 | 73 | 353 | 1.0 | 5.0 | 0.00 | 0.19 | 0.19 | 90 | 1016.4 |
| 20260504014341 | 73 | 39 | 3.0 | 5.0 | 0.00 | 0.19 | 0.19 | 90 | 1016.3 |
| 20260504013841 | 73 | 27 | 2.0 | 5.0 | 0.00 | 0.19 | 0.19 | 90 | 1016.2 |
| 20260504013408 | 73 | 29 | 2.0 | 4.0 | 0.00 | 0.19 | 0.19 | 90 | 1016.1 |
| 20260504012855 | 73 | 45 | 2.0 | 4.0 | 0.00 | 0.19 | 0.19 | 90 | 1016.2 |
| 20260504012329 | 73 | 46 | 2.0 | 4.0 | 0.00 | 0.19 | 0.19 | 90 | 1016.1 |
| 20260504011820 | 73 | 99 | 1.0 | 4.0 | 0.00 | 0.19 | 0.19 | 90 | 1016.1 |
| 20260504011324 | 73 | 44 | 1.0 | 4.0 | 0.00 | 0.19 | 0.19 | 90 | 1016.2 |
| 20260504010845 | 73 | 25 | 2.0 | 5.0 | 0.00 | 0.19 | 0.19 | 90 | 1016.2 |
| 20260504010337 | 73 | 38 | 2.0 | 5.0 | 0.00 | 0.19 | 0.19 | 90 | 1016.1 |
| 20260504005827 | 73 | 51 | 2.0 | 5.0 | 0.00 | 0.19 | 0.19 | 90 | 1016.0 |
| 20260504005322 | 73 | 44 | 1.0 | 4.0 | 0.00 | 0.19 | 0.19 | 90 | 1016.1 |
| 20260504004835 | 73 | 49 | 2.0 | 4.0 | 0.00 | 0.19 | 0.19 | 90 | 1016.0 |
| 20260504004329 | 73 | 19 | 1.0 | 5.0 | 0.00 | 0.19 | 0.19 | 90 | 1015.9 |